When you browse on this site, cookies collect data to enhance your experience and personalize the content and advertising you see.
Visit our Privacy Policy to learn more. By continuing to use the site, you agree to this use of cookies and data.
EN

Hourly Weather Grachevka

Today, 7 August, Friday

Time Temperature Precipitation Wind Pressure Humidity
00:00 +19°C° 0 mm 2 mps 747 mmHg 85%
01:00 +19°C° 0 mm 3 mps 747 mmHg 89%
02:00 +18°C° 0 mm 3 mps 748 mmHg 93%
03:00 +18°C° 0 mm 3 mps 748 mmHg 93%
04:00 +18°C° 0 mm 3 mps 747 mmHg 93%
05:00 +17°C° 0 mm 3 mps 747 mmHg 93%
06:00 +19°C° 0 mm 3 mps 748 mmHg 87%
07:00 +20°C° 0 mm 4 mps 748 mmHg 81%
08:00 +21°C° 0 mm 4 mps 748 mmHg 75%
09:00 +22°C° 0 mm 4 mps 748 mmHg 70%
10:00 +23°C° 0 mm 4 mps 748 mmHg 66%
11:00 +25°C° 0 mm 5 mps 748 mmHg 62%
12:00 +25°C° 0 mm 5 mps 748 mmHg 61%
13:00 +26°C° 0 mm 5 mps 748 mmHg 61%
14:00 +26°C° 0 mm 5 mps 748 mmHg 60%
15:00 +25°C° 0 mm 4 mps 747 mmHg 62%
16:00 +25°C° 0 mm 4 mps 747 mmHg 64%
17:00 +25°C° 0 mm 4 mps 747 mmHg 66%
18:00 +22°C° 0 mm 3 mps 747 mmHg 71%
19:00 +21°C° 0 mm 3 mps 747 mmHg 75%
20:00 +19°C° 0 mm 3 mps 747 mmHg 80%
21:00 +18°C° 0 mm 2 mps 747 mmHg 81%
22:00 +18°C° 0 mm 2 mps 747 mmHg 83%
23:00 +17°C° 0 mm 2 mps 747 mmHg 84%

Tomorrow, 8 August, Saturday

Time Temperature Precipitation Wind Pressure Humidity
00:00 +17°C° 0 mm 2 mps 747 mmHg 85%
01:00 +16°C° 0 mm 2 mps 747 mmHg 86%
02:00 +16°C° 0 mm 2 mps 747 mmHg 88%
03:00 +16°C° 0 mm 2 mps 747 mmHg 88%
04:00 +16°C° 0 mm 2 mps 747 mmHg 89%
05:00 +16°C° 0 mm 2 mps 747 mmHg 90%
06:00 +17°C° 0 mm 2 mps 747 mmHg 83%
07:00 +19°C° 0 mm 3 mps 747 mmHg 77%
08:00 +21°C° 0 mm 3 mps 747 mmHg 70%
09:00 +22°C° 0 mm 3 mps 747 mmHg 67%
10:00 +24°C° 0 mm 3 mps 747 mmHg 63%
11:00 +25°C° 0 mm 3 mps 747 mmHg 60%
12:00 +25°C° 0.1 mm 4 mps 746 mmHg 59%
13:00 +25°C° 0.1 mm 4 mps 746 mmHg 58%
14:00 +26°C° 0.1 mm 4 mps 746 mmHg 57%
15:00 +25°C° 0 mm 4 mps 745 mmHg 59%
16:00 +25°C° 0 mm 3 mps 745 mmHg 62%
17:00 +25°C° 0 mm 3 mps 745 mmHg 64%
18:00 +22°C° 0 mm 3 mps 745 mmHg 68%
19:00 +20°C° 0 mm 2 mps 744 mmHg 73%
20:00 +19°C° 0 mm 2 mps 744 mmHg 77%
21:00 +18°C° 0 mm 2 mps 744 mmHg 79%
22:00 +18°C° 0 mm 2 mps 744 mmHg 81%
23:00 +17°C° 0 mm 2 mps 744 mmHg 83%

Day after tomorrow, 9 August, Sunday

Time Temperature Precipitation Wind Pressure Humidity
00:00 +17°C° 0 mm 2 mps 744 mmHg 86%
01:00 +16°C° 0 mm 2 mps 744 mmHg 89%
02:00 +16°C° 0 mm 2 mps 744 mmHg 92%
03:00 +16°C° 0 mm 2 mps 743 mmHg 93%
04:00 +16°C° 0 mm 2 mps 743 mmHg 94%
05:00 +16°C° 0 mm 2 mps 743 mmHg 95%
06:00 +17°C° 0 mm 3 mps 743 mmHg 89%
07:00 +19°C° 0 mm 3 mps 743 mmHg 83%
08:00 +21°C° 0 mm 3 mps 743 mmHg 77%
09:00 +22°C° 0 mm 3 mps 743 mmHg 71%
10:00 +23°C° 0 mm 4 mps 743 mmHg 66%
11:00 +25°C° 0 mm 4 mps 743 mmHg 61%
12:00 +25°C° 0 mm 4 mps 743 mmHg 58%
13:00 +25°C° 0 mm 4 mps 743 mmHg 56%
14:00 +26°C° 0 mm 4 mps 743 mmHg 54%
15:00 +25°C° 0 mm 3 mps 742 mmHg 57%
16:00 +25°C° 0 mm 3 mps 742 mmHg 59%
17:00 +24°C° 0 mm 3 mps 742 mmHg 61%
18:00 +23°C° 0 mm 2 mps 742 mmHg 66%
19:00 +20°C° 0 mm 2 mps 742 mmHg 70%
20:00 +20°C° 0 mm 1 mps 742 mmHg 74%
21:00 +19°C° 0 mm 1 mps 742 mmHg 76%
22:00 +19°C° 0 mm 1 mps 742 mmHg 79%
23:00 +18°C° 0 mm 1 mps 742 mmHg 81%

10 August, Monday

Time Temperature Precipitation Wind Pressure Humidity
00:00 +18°C° 0 mm 1 mps 742 mmHg 84%
01:00 +16°C° 0 mm 1 mps 742 mmHg 86%
02:00 +16°C° 0 mm 2 mps 742 mmHg 88%
03:00 +16°C° 0 mm 2 mps 742 mmHg 90%
04:00 +16°C° 0 mm 2 mps 742 mmHg 91%
05:00 +16°C° 0 mm 2 mps 742 mmHg 92%
06:00 +18°C° 0 mm 2 mps 742 mmHg 87%
07:00 +19°C° 0 mm 2 mps 742 mmHg 82%
08:00 +21°C° 0 mm 2 mps 742 mmHg 77%
09:00 +23°C° 0 mm 2 mps 742 mmHg 71%
10:00 +24°C° 0 mm 2 mps 742 mmHg 65%
11:00 +25°C° 0 mm 2 mps 742 mmHg 59%
12:00 +25°C° 0 mm 2 mps 742 mmHg 56%
13:00 +26°C° 0 mm 2 mps 742 mmHg 53%
14:00 +26°C° 0 mm 2 mps 742 mmHg 51%
15:00 +26°C° 0 mm 2 mps 741 mmHg 54%
16:00 +26°C° 0 mm 2 mps 741 mmHg 57%
17:00 +25°C° 0 mm 1 mps 741 mmHg 60%
18:00 +24°C° 0.1 mm 1 mps 741 mmHg 64%
19:00 +22°C° 0.1 mm 1 mps 741 mmHg 69%
20:00 +20°C° 0.1 mm 1 mps 741 mmHg 73%
21:00 +20°C° 0.2 mm 1 mps 741 mmHg 75%
22:00 +19°C° 0.2 mm 1 mps 741 mmHg 77%
23:00 +19°C° 0.2 mm 1 mps 741 mmHg 80%

11 August, Tuesday

Time Temperature Precipitation Wind Pressure Humidity
00:00 +19°C° 0 mm 1 mps 741 mmHg 82%
01:00 +17°C° 0 mm 2 mps 741 mmHg 84%
02:00 +17°C° 0 mm 2 mps 741 mmHg 86%
03:00 +17°C° 0 mm 2 mps 741 mmHg 88%
04:00 +18°C° 0 mm 1 mps 741 mmHg 89%
05:00 +16°C° 0 mm 1 mps 740 mmHg 91%
06:00 +18°C° 0 mm 2 mps 740 mmHg 86%
07:00 +20°C° 0 mm 2 mps 740 mmHg 80%
08:00 +21°C° 0 mm 2 mps 740 mmHg 75%
09:00 +24°C° 0.4 mm 2 mps 740 mmHg 70%
10:00 +25°C° 0.4 mm 2 mps 740 mmHg 65%
11:00 +26°C° 0.4 mm 2 mps 740 mmHg 60%
12:00 +26°C° 0.7 mm 3 mps 740 mmHg 61%
13:00 +26°C° 0.7 mm 4 mps 739 mmHg 61%
14:00 +26°C° 0.7 mm 4 mps 739 mmHg 62%
15:00 +25°C° 0.7 mm 4 mps 739 mmHg 65%
16:00 +25°C° 0.7 mm 4 mps 739 mmHg 68%
17:00 +23°C° 0.7 mm 4 mps 739 mmHg 71%
18:00 +21°C° 0.2 mm 4 mps 739 mmHg 75%
19:00 +20°C° 0.2 mm 3 mps 739 mmHg 80%
20:00 +18°C° 0.2 mm 3 mps 739 mmHg 84%
21:00 +17°C° 0 mm 3 mps 739 mmHg 84%
22:00 +16°C° 0 mm 3 mps 739 mmHg 85%
23:00 +14°C° 0 mm 3 mps 739 mmHg 85%

12 August, Wednesday

Time Temperature Precipitation Wind Pressure Humidity
00:00 +13°C° 0 mm 3 mps 739 mmHg 85%
01:00 +13°C° 0 mm 3 mps 739 mmHg 86%
02:00 +12°C° 0 mm 3 mps 739 mmHg 86%
03:00 +12°C° 0 mm 3 mps 739 mmHg 88%
04:00 +11°C° 0 mm 3 mps 739 mmHg 90%
05:00 +11°C° 0 mm 3 mps 739 mmHg 92%
06:00 +12°C° 0 mm 3 mps 739 mmHg 90%
07:00 +13°C° 0 mm 4 mps 739 mmHg 89%
08:00 +14°C° 0 mm 4 mps 739 mmHg 88%
09:00 +15°C° 0.1 mm 4 mps 739 mmHg 85%
10:00 +15°C° 0.1 mm 5 mps 740 mmHg 82%
11:00 +16°C° 0.1 mm 5 mps 740 mmHg 79%
12:00 +16°C° 0.2 mm 5 mps 740 mmHg 79%
13:00 +16°C° 0.2 mm 5 mps 740 mmHg 79%
14:00 +15°C° 0.2 mm 5 mps 740 mmHg 80%
15:00 +15°C° 0.1 mm 5 mps 740 mmHg 79%
16:00 +15°C° 0.1 mm 5 mps 740 mmHg 78%
17:00 +15°C° 0.1 mm 5 mps 740 mmHg 77%
18:00 +14°C° 0.1 mm 5 mps 740 mmHg 82%
19:00 +13°C° 0.1 mm 5 mps 740 mmHg 86%
20:00 +10°C° 0.1 mm 5 mps 740 mmHg 90%
21:00 +10°C° 0 mm 5 mps 740 mmHg 90%
22:00 +10°C° 0 mm 5 mps 740 mmHg 89%
23:00 +10°C° 0 mm 5 mps 740 mmHg 89%
Show more